DW1970 Bodega Bay CA US current weather conditions

sailwx.info

Wind from 079 at 1 knots

Air temperature 5.6° C
Dewpoint 0.1° C

Last reported at 2018-Feb-24 06:03 UTC.
Time now 2018-Feb-24 06:28 UTC

Location: N 38°23' W 123°04'.
View on Google Maps.

See reports from other nearby stations

  
Tides and Currents Weather Stations Pressure Air Temp Water Temp Dewpoint Dewpoint Depression Visibility Wind Speed Wind Dir Waves Ship Positions
date/time (UTC)wind fromknots sea level pressurealtimeterstation pressurevisibilityair tempwater tempwave heightnotes
2018-Feb-24 06:03 079 1 5.6
2018-Feb-24 05:48 074 1 5.6
2018-Feb-24 05:33 074 0 6.1
2018-Feb-24 05:18 078 0 6.1
2018-Feb-24 05:03 084 1 6.1
2018-Feb-24 04:48 030 0 6.1
2018-Feb-24 04:33 055 0 6.1
2018-Feb-24 04:18 040 0 6.1
2018-Feb-24 04:03 059 0 6.1
2018-Feb-24 03:48 055 2 6.1
2018-Feb-24 03:33 047 0 6.1
2018-Feb-24 03:18 022 1 6.1
2018-Feb-24 03:02 063 0 7.2
2018-Feb-24 02:48 315 0 7.2
2018-Feb-24 02:33 073 1 7.2
2018-Feb-24 02:18 327 4 7.8
2018-Feb-24 02:03 292 4 7.8
2018-Feb-24 01:49 302 6 8.3
2018-Feb-24 01:33 277 9 8.9
2018-Feb-24 01:18 306 8 8.9
2018-Feb-24 01:03 289 10 8.9
2018-Feb-24 00:49 286 11 8.9
2018-Feb-24 00:33 295 12 8.9
2018-Feb-24 00:18 298 12 8.3
2018-Feb-24 00:03 300 11 8.9
2018-Feb-23 23:48 273 13 8.3
2018-Feb-23 23:33 294 13 8.3
2018-Feb-23 23:18 290 13 8.3
2018-Feb-23 23:03 294 15 8.3
2018-Feb-23 22:48 281 15 8.3
2018-Feb-23 22:33 284 13 8.3
2018-Feb-23 22:18 301 12 8.3
2018-Feb-23 22:03 296 12 8.3
2018-Feb-23 21:48 309 13 8.3
2018-Feb-23 21:33 289 6 8.9
2018-Feb-23 21:18 306 7 8.9
2018-Feb-23 21:03 276 6 8.9
2018-Feb-23 20:48 301 7 8.3
2018-Feb-23 20:33 289 7 8.3
2018-Feb-23 20:18 294 6 7.8
2018-Feb-23 20:03 309 8 7.8
2018-Feb-23 19:48 296 8 7.8
2018-Feb-23 19:33 286 6 7.2
2018-Feb-23 19:18 257 6 7.2
2018-Feb-23 19:03 290 6 7.2
2018-Feb-23 18:48 261 6 7.2
2018-Feb-23 18:33 304 6 6.7
2018-Feb-23 18:18 304 6 6.1
2018-Feb-23 18:03 316 6 6.1
2018-Feb-23 17:48 294 5 6.1
2018-Feb-23 17:33 288 6 6.7
2018-Feb-23 17:17 316 6 6.1
2018-Feb-23 17:02 302 6 5.6
2018-Feb-23 16:47 344 3 5.6
2018-Feb-23 16:32 236 1 5.6
2018-Feb-23 16:17 252 4 4.4
2018-Feb-23 16:03 273 1 4.4
2018-Feb-23 15:47 256 3 3.9
2018-Feb-23 15:32 296 2 3.3
2018-Feb-23 15:17 015 2 2.8
2018-Feb-23 15:02 051 1 2.8
2018-Feb-23 14:47 243 3 2.8
2018-Feb-23 14:32 271 2 2.8
2018-Feb-23 14:17 046 2 2.8
2018-Feb-23 14:02 346 2 2.8
2018-Feb-23 13:47 323 0 2.8
2018-Feb-23 13:32 135 0 2.8
2018-Feb-23 13:17 067 1 2.8
2018-Feb-23 13:02 323 1 2.8
2018-Feb-23 12:47 292 2 3.3
2018-Feb-23 12:32 322 2 3.3
2018-Feb-23 12:17 264 3 3.9
2018-Feb-23 12:02 223 1 3.3
2018-Feb-23 11:47 319 6 3.9
2018-Feb-23 11:32 017 10 4.4
2018-Feb-23 11:17 341 11 4.4
2018-Feb-23 11:02 347 13 4.4
2018-Feb-23 10:47 329 12 4.4
2018-Feb-23 10:32 319 11 4.4
2018-Feb-23 10:17 299 10 4.4
2018-Feb-23 10:02 319 11 4.4
2018-Feb-23 09:47 304 11 4.4
2018-Feb-23 09:32 302 9 4.4
2018-Feb-23 09:17 336 8 4.4
2018-Feb-23 09:02 331 9 4.4
2018-Feb-23 08:46 319 10 4.4
2018-Feb-23 08:31 317 9 5.0
2018-Feb-23 08:16 330 10 5.0
2018-Feb-23 08:01 328 12 5.0
2018-Feb-23 07:46 333 11 5.0
2018-Feb-23 07:31 309 12 5.0
2018-Feb-23 07:16 315 13 5.0
2018-Feb-23 07:01 313 13 5.0
2018-Feb-23 06:46 355 14 5.6
2018-Feb-23 06:31 338 13 5.6
2018-Feb-23 06:16 315 11 5.6
2018-Feb-23 06:01 026 9 5.6
2018-Feb-23 05:46 302 9 5.6
2018-Feb-23 05:31 329 10 5.6
2018-Feb-23 05:16 321 11 6.1
2018-Feb-23 05:01 327 13 6.7
2018-Feb-23 04:46 324 13 6.7
2018-Feb-23 04:31 308 12 6.7
2018-Feb-23 04:16 318 13 6.7
2018-Feb-23 04:01 313 13 6.7
2018-Feb-23 03:46 296 9 6.7
2018-Feb-23 03:31 308 8 6.7
2018-Feb-23 03:16 316 11 6.7
2018-Feb-23 03:01 293 12 7.2
2018-Feb-23 02:46 299 12 7.2
2018-Feb-23 02:31 314 15 7.8
2018-Feb-23 02:16 292 17 7.8
2018-Feb-23 02:01 290 16 7.8
2018-Feb-23 01:46 298 19 7.8
2018-Feb-23 01:31 300 19 8.3
2018-Feb-23 01:16 285 19 8.3
2018-Feb-23 01:01 277 22 8.3
2018-Feb-23 00:46 288 22 7.8
2018-Feb-23 00:31 297 25 7.8
2018-Feb-23 00:16 299 19 8.3
2018-Feb-23 00:01 272 19 8.3
2018-Feb-22 23:46 293 19 8.3
2018-Feb-22 23:31 296 19 8.3
2018-Feb-22 23:16 308 19 8.3
2018-Feb-22 23:01 297 17 8.3
2018-Feb-22 22:46 294 18 8.3
2018-Feb-22 22:31 276 16 8.3
2018-Feb-22 22:16 298 19 8.9
2018-Feb-22 22:01 302 23 8.3
2018-Feb-22 21:46 261 13 9.4
2018-Feb-22 21:31 276 12 8.9
2018-Feb-22 21:16 301 10 8.9
2018-Feb-22 21:01 265 10 8.9
2018-Feb-22 20:46 304 9 9.4
2018-Feb-22 20:31 292 15 8.9
2018-Feb-22 20:16 296 9 9.4
2018-Feb-22 20:01 252 10 8.9
2018-Feb-22 19:46 315 8 8.9
2018-Feb-22 19:31 303 7 8.9
2018-Feb-22 19:16 289 7 8.9
2018-Feb-22 19:01 257 10 8.3
2018-Feb-22 18:46 258 9 8.3
2018-Feb-22 18:31 273 7 8.9
2018-Feb-22 18:16 295 10 8.3
2018-Feb-22 18:01 316 6 8.3
2018-Feb-22 17:45 293 6 7.8
2018-Feb-22 17:30 299 7 7.8
2018-Feb-22 17:15 294 8 7.2
2018-Feb-22 17:00 294 7 7.8
2018-Feb-22 16:45 327 6 7.2
2018-Feb-22 16:30 297 8 6.7
2018-Feb-22 16:15 281 11 6.7
2018-Feb-22 16:00 340 7 5.6
2018-Feb-22 15:45 311 8 5.6
2018-Feb-22 15:30 314 10 5.6
2018-Feb-22 15:15 303 9 5.0
2018-Feb-22 15:00 297 10 5.0
2018-Feb-22 14:45 293 9 5.0
2018-Feb-22 14:30 301 6 5.0
2018-Feb-22 14:15 294 9 5.0
2018-Feb-22 14:00 317 11 5.0
2018-Feb-22 13:45 280 15 5.6
2018-Feb-22 13:30 313 13 5.6
2018-Feb-22 13:15 302 13 5.6
2018-Feb-22 13:00 306 11 5.0
2018-Feb-22 12:45 306 12 5.0
2018-Feb-22 12:30 320 8 5.0
2018-Feb-22 12:15 325 8 5.0
2018-Feb-22 12:00 281 6 5.0
2018-Feb-22 11:45 332 6 5.0
2018-Feb-22 11:30 339 6 5.6
2018-Feb-22 11:15 315 7 5.6
2018-Feb-22 11:00 329 5 5.0
2018-Feb-22 10:45 321 3 5.0
2018-Feb-22 10:30 348 3 5.6
2018-Feb-22 10:15 322 3 5.0
2018-Feb-22 10:00 032 2 5.0
2018-Feb-22 09:45 024 1 5.6
2018-Feb-22 09:29 350 1 5.6
2018-Feb-22 09:14 009 1 5.0
2018-Feb-22 08:59 041 1 5.6
2018-Feb-22 08:44 047 1 5.0
2018-Feb-22 08:29 034 1 5.0
2018-Feb-22 08:14 035 2 5.0
2018-Feb-22 07:59 041 2 5.0
2018-Feb-22 07:44 026 1 5.6
2018-Feb-22 07:29 035 2 5.6
2018-Feb-22 07:14 063 2 6.1
2018-Feb-22 06:59 049 0 6.1
2018-Feb-22 06:44 026 2 6.1
2018-Feb-22 06:29 306 3 6.1
2018-Feb-22 06:14 037 1 6.1